| time (UTC) | temp C | wind direction | speed KPH | gust KPH | rain 1hr cm | rain 24hr cm | rain mn cm | humidity % | barometer mb |
| 20260905204035 | 18 | 57 | 8.0 | 12.9 | 0.00 | 0.03 | 0.03 | 89 | 1010.1 |
| 20260905203535 | 18 | 55 | 3.2 | 12.9 | 0.00 | 0.03 | 0.03 | 89 | 1010.1 |
| 20260905203035 | 18 | 94 | 4.8 | 12.9 | 0.00 | 0.03 | 0.03 | 88 | 1010.0 |
| 20260905202535 | 18 | 119 | 4.8 | 14.5 | 0.03 | 0.03 | 0.03 | 86 | 1010.1 |
| 20260905202034 | 19 | 65 | 4.8 | 19.3 | 0.03 | 0.03 | 0.03 | 82 | 1010.1 |
| 20260905201534 | 21 | 5 | 12.9 | 19.3 | 0.03 | 0.03 | 0.03 | 76 | 1010.0 |
| 20260905201032 | 22 | 318 | 8.0 | 33.8 | 0.03 | 0.03 | 0.03 | 73 | 1009.7 |
| 20260905200535 | 22 | 141 | 4.8 | 20.9 | 0.03 | 0.03 | 0.03 | 79 | 1009.6 |
| 20260905200032 | 22 | 117 | 4.8 | 9.7 | 0.03 | 0.03 | 0.03 | 77 | 1009.2 |
| 20260905195531 | 22 | 49 | 1.6 | 6.4 | 0.03 | 0.03 | 0.03 | 75 | 1009.1 |
| 20260905195031 | 22 | 103 | 1.6 | 6.4 | 0.03 | 0.03 | 0.03 | 76 | 1009.1 |
| 20260905194530 | 22 | 105 | 1.6 | 4.8 | 0.03 | 0.03 | 0.03 | 76 | 1009.1 |
| 20260905194032 | 22 | 118 | 1.6 | 6.4 | 0.03 | 0.03 | 0.03 | 72 | 1009.1 |
| 20260905193530 | 22 | 27 | 0.0 | 9.7 | 0.03 | 0.03 | 0.03 | 72 | 1009.0 |
| 20260905193039 | 22 | 19 | 0.0 | 9.7 | 0.03 | 0.03 | 0.03 | 69 | 1009.1 |
| 20260905192532 | 22 | 107 | 1.6 | 14.5 | 0.00 | 0.00 | 0.00 | 70 | 1009.1 |
| 20260905192030 | 22 | 110 | 6.4 | 14.5 | 0.00 | 0.00 | 0.00 | 68 | 1009.1 |
| 20260905191530 | 22 | 26 | 0.0 | 12.9 | 0.00 | 0.00 | 0.00 | 67 | 1009.0 |
| 20260905191029 | 22 | 77 | 6.4 | 11.3 | 0.00 | 0.00 | 0.00 | 68 | 1009.1 |
| 20260905190529 | 22 | 98 | 1.6 | 9.7 | 0.00 | 0.00 | 0.00 | 69 | 1009.1 |
| 20260905190039 | 22 | 59 | 0.0 | 9.7 | 0.00 | 0.00 | 0.00 | 71 | 1009.1 |
| 20260905185529 | 22 | 102 | 4.8 | 9.7 | 0.00 | 0.00 | 0.00 | 70 | 1009.1 |
| 20260905185031 | 22 | 80 | 1.6 | 8.0 | 0.00 | 0.00 | 0.00 | 70 | 1009.2 |
| 20260905184532 | 22 | 360 | 1.6 | 9.7 | 0.00 | 0.00 | 0.00 | 72 | 1009.2 |
| 20260905184028 | 22 | 163 | 3.2 | 11.3 | 0.00 | 0.00 | 0.00 | 70 | 1009.2 |
| 20260905183527 | 22 | 55 | 4.8 | 11.3 | 0.00 | 0.00 | 0.00 | 70 | 1009.2 |
| 20260905183027 | 22 | 49 | 3.2 | 12.9 | 0.00 | 0.00 | 0.00 | 68 | 1009.2 |
| 20260905182528 | 23 | 112 | 3.2 | 12.9 | 0.00 | 0.00 | 0.00 | 66 | 1009.1 |
| 20260905182027 | 23 | 107 | 3.2 | 11.3 | 0.00 | 0.00 | 0.00 | 65 | 1009.1 |
| 20260905181527 | 23 | 115 | 4.8 | 9.7 | 0.00 | 0.00 | 0.00 | 67 | 1009.2 |
| 20260905181026 | 23 | 90 | 6.4 | 9.7 | 0.00 | 0.00 | 0.00 | 67 | 1009.1 |
| 20260905180527 | 22 | 269 | 0.0 | 6.4 | 0.00 | 0.00 | 0.00 | 72 | 1009.1 |
| 20260905180034 | 22 | 121 | 0.0 | 6.4 | 0.00 | 0.00 | 0.00 | 71 | 1009.2 |
| 20260905175526 | 21 | 61 | 0.0 | 9.7 | 0.00 | 0.00 | 0.00 | 70 | 1009.2 |
| 20260905175026 | 22 | 107 | 1.6 | 12.9 | 0.00 | 0.00 | 0.00 | 70 | 1009.2 |
| 20260905174526 | 22 | 14 | 4.8 | 14.5 | 0.00 | 0.00 | 0.00 | 67 | 1009.2 |
| 20260905174025 | 22 | 153 | 4.8 | 8.0 | 0.00 | 0.00 | 0.00 | 68 | 1009.1 |
| 20260905173525 | 22 | 68 | 1.6 | 9.7 | 0.00 | 0.00 | 0.00 | 67 | 1009.0 |
| 20260905173024 | 22 | 78 | 4.8 | 9.7 | 0.00 | 0.00 | 0.00 | 68 | 1009.0 |
| 20260905172525 | 23 | 28 | 4.8 | 11.3 | 0.00 | 0.00 | 0.00 | 67 | 1008.9 |
| 20260905172024 | 23 | 331 | 4.8 | 12.9 | 0.00 | 0.00 | 0.00 | 63 | 1008.9 |
| 20260905171530 | 23 | 87 | 6.4 | 12.9 | 0.00 | 0.00 | 0.00 | 64 | 1008.9 |
| 20260905171024 | 23 | 301 | 1.6 | 9.7 | 0.00 | 0.00 | 0.00 | 64 | 1008.8 |
| 20260905170521 | 23 | 68 | 1.6 | 4.8 | 0.00 | 0.00 | 0.00 | 72 | 1008.9 |
| 20260905170021 | 22 | 327 | 0.0 | 9.7 | 0.00 | 0.00 | 0.00 | 73 | 1009.0 |
| 20260905165522 | 21 | 41 | 3.2 | 9.7 | 0.00 | 0.00 | 0.00 | 73 | 1009.0 |
| 20260905165019 | 21 | 128 | 1.6 | 8.0 | 0.00 | 0.00 | 0.00 | 71 | 1009.0 |
| 20260905164519 | 21 | 110 | 1.6 | 8.0 | 0.00 | 0.00 | 0.00 | 71 | 1009.0 |
| 20260905164020 | 22 | 26 | 3.2 | 9.7 | 0.00 | 0.00 | 0.00 | 71 | 1009.1 |
| 20260905163518 | 22 | 70 | 3.2 | 9.7 | 0.00 | 0.00 | 0.00 | 70 | 1009.0 |
| 20260905163018 | 22 | 57 | 1.6 | 12.9 | 0.00 | 0.00 | 0.00 | 72 | 1009.1 |
| 20260905162517 | 21 | 344 | 4.8 | 11.3 | 0.00 | 0.00 | 0.00 | 74 | 1009.2 |
| 20260905162020 | 21 | 144 | 3.2 | 8.0 | 0.00 | 0.00 | 0.00 | 77 | 1009.1 |
| 20260905161523 | 21 | 102 | 0.0 | 8.0 | 0.00 | 0.00 | 0.00 | 75 | 1009.2 |
| 20260905161016 | 21 | 58 | 3.2 | 8.0 | 0.00 | 0.00 | 0.00 | 76 | 1009.2 |
| 20260905160517 | 21 | 88 | 1.6 | 3.2 | 0.00 | 0.00 | 0.00 | 78 | 1009.2 |
| 20260905160016 | 20 | 238 | 1.6 | 3.2 | 0.00 | 0.00 | 0.00 | 81 | 1009.2 |
| 20260905155513 | 20 | 204 | 0.0 | 3.2 | 0.00 | 0.00 | 0.00 | 81 | 1009.2 |
| 20260905155012 | 20 | 37 | 0.0 | 3.2 | 0.00 | 0.00 | 0.00 | 79 | 1009.3 |
| 20260905154513 | 20 | 28 | 0.0 | 3.2 | 0.00 | 0.00 | 0.00 | 79 | 1009.4 |
| 20260905154017 | 20 | 360 | 0.0 | 6.4 | 0.00 | 0.00 | 0.00 | 76 | 1009.3 |
| 20260905153513 | 21 | 36 | 1.6 | 8.0 | 0.00 | 0.00 | 0.00 | 75 | 1009.3 |
| 20260905153012 | 21 | 31 | 1.6 | 8.0 | 0.00 | 0.00 | 0.00 | 75 | 1009.3 |
| 20260905152513 | 21 | 119 | 1.6 | 9.7 | 0.00 | 0.00 | 0.00 | 75 | 1009.3 |
| 20260905152016 | 21 | 360 | 4.8 | 11.3 | 0.00 | 0.00 | 0.00 | 75 | 1009.2 |
| 20260905151512 | 21 | 13 | 4.8 | 9.7 | 0.00 | 0.00 | 0.00 | 75 | 1009.3 |
| 20260905151011 | 21 | 75 | 0.0 | 8.0 | 0.00 | 0.00 | 0.00 | 78 | 1009.3 |
| 20260905150511 | 21 | 101 | 1.6 | 9.7 | 0.00 | 0.00 | 0.00 | 76 | 1009.3 |
| 20260905150011 | 21 | 24 | 3.2 | 9.7 | 0.00 | 0.00 | 0.00 | 77 | 1009.3 |
| 20260905145515 | 21 | 190 | 0.0 | 8.0 | 0.00 | 0.00 | 0.00 | 77 | 1009.3 |
| 20260905145010 | 21 | 177 | 1.6 | 8.0 | 0.00 | 0.00 | 0.00 | 78 | 1009.3 |
| 20260905144518 | 21 | 102 | 0.0 | 8.0 | 0.00 | 0.00 | 0.00 | 77 | 1009.4 |
| 20260905144013 | 21 | 66 | 0.0 | 8.0 | 0.00 | 0.00 | 0.00 | 77 | 1009.3 |
| 20260905143509 | 21 | 67 | 1.6 | 9.7 | 0.00 | 0.00 | 0.00 | 77 | 1009.3 |
| 20260905143008 | 21 | 113 | 3.2 | 9.7 | 0.00 | 0.00 | 0.00 | 78 | 1009.4 |
| 20260905142508 | 20 | 304 | 0.0 | 3.2 | 0.00 | 0.00 | 0.00 | 79 | 1009.4 |
| 20260905142005 | 20 | 301 | 0.0 | 3.2 | 0.00 | 0.00 | 0.00 | 82 | 1009.4 |
| 20260905141510 | 20 | 86 | 0.0 | 3.2 | 0.00 | 0.00 | 0.00 | 82 | 1009.5 |
| 20260905141003 | 20 | 51 | 0.0 | 3.2 | 0.00 | 0.00 | 0.00 | 82 | 1009.6 |
| 20260905140505 | 20 | 26 | 0.0 | 3.2 | 0.00 | 0.00 | 0.00 | 83 | 1009.5 |
| 20260905140002 | 19 | 14 | 0.0 | 3.2 | 0.00 | 0.00 | 0.00 | 83 | 1009.5 |
| 20260905135600 | 19 | 340 | 0.0 | 6.4 | 0.00 | 0.00 | 0.00 | 82 | 1009.5 |
| 20260905135100 | 19 | 22 | 0.0 | 6.4 | 0.00 | 0.00 | 0.00 | 84 | 1009.4 |
| 20260905134604 | 19 | 103 | 0.0 | 3.2 | 0.00 | 0.00 | 0.00 | 83 | 1009.4 |
| 20260905134100 | 19 | 12 | 0.0 | 3.2 | 0.00 | 0.00 | 0.00 | 83 | 1009.4 |
| 20260905133557 | 19 | 10 | 0.0 | 8.0 | 0.00 | 0.00 | 0.00 | 83 | 1009.3 |
| 20260905133057 | 19 | 118 | 1.6 | 8.0 | 0.00 | 0.00 | 0.00 | 84 | 1009.3 |
| 20260905132557 | 19 | 11 | 1.6 | 8.0 | 0.00 | 0.00 | 0.00 | 83 | 1009.2 |
| 20260905132058 | 19 | 269 | 1.6 | 8.0 | 0.00 | 0.00 | 0.00 | 83 | 1009.1 |
| 20260905131555 | 19 | 69 | 1.6 | 8.0 | 0.00 | 0.00 | 0.00 | 84 | 1009.0 |
| 20260905131055 | 19 | 98 | 0.0 | 3.2 | 0.00 | 0.00 | 0.00 | 85 | 1008.9 |
| 20260905130553 | 18 | 17 | 0.0 | 3.2 | 0.00 | 0.00 | 0.00 | 85 | 1009.0 |
| 20260905130052 | 18 | 21 | 0.0 | 3.2 | 0.00 | 0.00 | 0.00 | 86 | 1009.0 |
| 20260905125551 | 18 | 96 | 0.0 | 3.2 | 0.00 | 0.00 | 0.00 | 86 | 1009.0 |
| 20260905125050 | 18 | 57 | 0.0 | 3.2 | 0.00 | 0.00 | 0.00 | 87 | 1009.0 |
| 20260905124554 | 18 | 50 | 0.0 | 3.2 | 0.00 | 0.00 | 0.00 | 86 | 1008.9 |
| 20260905124048 | 18 | 29 | 0.0 | 9.7 | 0.00 | 0.00 | 0.00 | 86 | 1008.9 |
| 20260905123551 | 18 | 136 | 3.2 | 9.7 | 0.00 | 0.00 | 0.00 | 87 | 1008.8 |
| 20260905123046 | 18 | 80 | 3.2 | 8.0 | 0.00 | 0.00 | 0.00 | 88 | 1008.7 |
| 20260905122546 | 18 | 54 | 0.0 | 6.4 | 0.00 | 0.00 | 0.00 | 88 | 1008.6 |
| 20260905122049 | 18 | 51 | 0.0 | 8.0 | 0.00 | 0.00 | 0.00 | 88 | 1008.6 |
| 20260905121547 | 18 | 34 | 3.2 | 8.0 | 0.00 | 0.00 | 0.00 | 89 | 1008.5 |
| 20260905121045 | 18 | 67 | 0.0 | 8.0 | 0.00 | 0.00 | 0.00 | 90 | 1008.5 |
| 20260905120543 | 17 | 92 | 0.0 | 6.4 | 0.00 | 0.00 | 0.00 | 90 | 1008.5 |
| 20260905120057 | 17 | 360 | 1.6 | 6.4 | 0.00 | 0.00 | 0.00 | 91 | 1008.5 |
| 20260905115543 | 17 | 165 | 0.0 | 3.2 | 0.00 | 0.00 | 0.00 | 91 | 1008.5 |
| 20260905115044 | 17 | 165 | 0.0 | 3.2 | 0.00 | 0.00 | 0.00 | 92 | 1008.4 |
| 20260905114557 | 17 | 178 | 0.0 | 3.2 | 0.00 | 0.00 | 0.00 | 92 | 1008.3 |
| 20260905114041 | 17 | 178 | 0.0 | 3.2 | 0.00 | 0.00 | 0.00 | 93 | 1008.4 |
| 20260905113541 | 17 | 171 | 0.0 | 3.2 | 0.00 | 0.00 | 0.00 | 93 | 1008.3 |
| 20260905113051 | 16 | 202 | 0.0 | 3.2 | 0.00 | 0.00 | 0.00 | 93 | 1008.3 |
| 20260905112539 | 16 | 202 | 0.0 | 3.2 | 0.00 | 0.00 | 0.00 | 94 | 1008.2 |
| 20260905112038 | 16 | 196 | 0.0 | 1.6 | 0.00 | 0.00 | 0.00 | 94 | 1008.2 |
| 20260905111617 | 16 | 196 | 0.0 | 1.6 | 0.00 | 0.00 | 0.00 | 94 | 1008.2 |
| 20260905111037 | 16 | 196 | 0.0 | 1.6 | 0.00 | 0.00 | 0.00 | 94 | 1008.2 |
| 20260905110537 | 16 | 196 | 0.0 | 1.6 | 0.00 | 0.00 | 0.00 | 93 | 1008.2 |
| 20260905110036 | 16 | 196 | 0.0 | 1.6 | 0.00 | 0.00 | 0.00 | 93 | 1008.2 |
| 20260905105536 | 16 | 196 | 0.0 | 1.6 | 0.00 | 0.00 | 0.00 | 93 | 1008.2 |
| 20260905105035 | 15 | 196 | 0.0 | 3.2 | 0.00 | 0.00 | 0.00 | 93 | 1008.1 |
| 20260905104533 | 15 | 196 | 0.0 | 1.6 | 0.00 | 0.00 | 0.00 | 93 | 1008.1 |
| 20260905104033 | 16 | 196 | 0.0 | 1.6 | 0.00 | 0.00 | 0.00 | 93 | 1008.1 |
| 20260905103533 | 16 | 196 | 0.0 | 1.6 | 0.00 | 0.00 | 0.00 | 93 | 1008.1 |
| 20260905103036 | 16 | 196 | 0.0 | 1.6 | 0.00 | 0.00 | 0.00 | 93 | 1008.0 |
| 20260905102533 | 15 | 196 | 0.0 | 1.6 | 0.00 | 0.00 | 0.00 | 92 | 1007.9 |
| 20260905102032 | 15 | 195 | 0.0 | 1.6 | 0.00 | 0.00 | 0.00 | 92 | 1008.0 |
| 20260905101532 | 16 | 165 | 0.0 | 1.6 | 0.00 | 0.00 | 0.00 | 92 | 1008.0 |
| 20260905101031 | 16 | 165 | 0.0 | 1.6 | 0.00 | 0.00 | 0.00 | 92 | 1008.0 |
| 20260905100531 | 16 | 165 | 0.0 | 1.6 | 0.00 | 0.00 | 0.00 | 92 | 1007.9 |
| 20260905100030 | 16 | 165 | 0.0 | 1.6 | 0.00 | 0.00 | 0.00 | 92 | 1007.9 |
| 20260905095530 | 16 | 165 | 0.0 | 1.6 | 0.00 | 0.00 | 0.00 | 92 | 1007.9 |
| 20260905095032 | 16 | 165 | 0.0 | 1.6 | 0.00 | 0.00 | 0.00 | 92 | 1007.9 |
| 20260905094529 | 16 | 165 | 0.0 | 3.2 | 0.00 | 0.00 | 0.00 | 92 | 1007.8 |
| 20260905094028 | 16 | 157 | 0.0 | 3.2 | 0.00 | 0.00 | 0.00 | 91 | 1007.8 |
| 20260905093528 | 16 | 132 | 0.0 | 3.2 | 0.00 | 0.00 | 0.00 | 91 | 1007.7 |
| 20260905093028 | 16 | 197 | 0.0 | 3.2 | 0.00 | 0.00 | 0.00 | 91 | 1007.6 |
| 20260905092530 | 16 | 197 | 0.0 | 1.6 | 0.00 | 0.00 | 0.00 | 91 | 1007.7 |
| 20260905092027 | 16 | 197 | 0.0 | 1.6 | 0.00 | 0.00 | 0.00 | 91 | 1007.6 |
| 20260905091527 | 16 | 145 | 0.0 | 1.6 | 0.00 | 0.00 | 0.00 | 90 | 1007.6 |
| 20260905091027 | 16 | 145 | 0.0 | 1.6 | 0.00 | 0.00 | 0.00 | 90 | 1007.6 |
| 20260905090526 | 16 | 145 | 0.0 | 1.6 | 0.00 | 0.00 | 0.00 | 90 | 1007.7 |
| 20260905090026 | 16 | 145 | 0.0 | 1.6 | 0.00 | 0.00 | 0.00 | 90 | 1007.6 |
| 20260905085525 | 16 | 118 | 0.0 | 3.2 | 0.00 | 0.00 | 0.00 | 90 | 1007.6 |
| 20260905085024 | 16 | 178 | 0.0 | 1.6 | 0.00 | 0.00 | 0.00 | 89 | 1007.5 |
| 20260905084523 | 16 | 182 | 0.0 | 1.6 | 0.00 | 0.00 | 0.00 | 89 | 1007.5 |
| 20260905084024 | 16 | 182 | 0.0 | 1.6 | 0.00 | 0.00 | 0.00 | 89 | 1007.5 |
| 20260905083526 | 17 | 182 | 0.0 | 1.6 | 0.00 | 0.00 | 0.00 | 89 | 1007.5 |
| 20260905083022 | 17 | 126 | 0.0 | 1.6 | 0.00 | 0.00 | 0.00 | 88 | 1007.5 |
| 20260905082522 | 17 | 119 | 0.0 | 1.6 | 0.00 | 0.00 | 0.00 | 87 | 1007.5 |
| 20260905082022 | 17 | 119 | 0.0 | 3.2 | 0.00 | 0.00 | 0.00 | 87 | 1007.5 |
| 20260905081522 | 17 | 119 | 0.0 | 3.2 | 0.00 | 0.00 | 0.00 | 87 | 1007.5 |
| 20260905081021 | 17 | 187 | 0.0 | 1.6 | 0.00 | 0.00 | 0.00 | 87 | 1007.4 |
| 20260905080522 | 17 | 195 | 0.0 | 1.6 | 0.00 | 0.00 | 0.00 | 87 | 1007.4 |
| 20260905080029 | 17 | 195 | 0.0 | 3.2 | 0.00 | 0.00 | 0.00 | 87 | 1007.4 |
| 20260905075521 | 17 | 195 | 0.0 | 3.2 | 0.00 | 0.00 | 0.00 | 87 | 1007.4 |
| 20260905075020 | 17 | 184 | 0.0 | 3.2 | 0.00 | 0.00 | 0.00 | 87 | 1007.4 |
| 20260905074520 | 17 | 180 | 0.0 | 3.2 | 0.00 | 0.00 | 0.00 | 87 | 1007.4 |
| 20260905074020 | 17 | 167 | 0.0 | 3.2 | 0.00 | 0.00 | 0.00 | 87 | 1007.4 |
| 20260905073519 | 17 | 167 | 0.0 | 3.2 | 0.00 | 0.00 | 0.00 | 87 | 1007.3 |
| 20260905073027 | 17 | 212 | 0.0 | 3.2 | 0.00 | 0.00 | 0.00 | 88 | 1007.5 |
| 20260905072619 | 17 | 194 | 0.0 | 3.2 | 0.00 | 0.00 | 0.00 | 88 | 1007.4 |
| 20260905072019 | 17 | 171 | 0.0 | 3.2 | 0.00 | 0.00 | 0.00 | 89 | 1007.5 |
| 20260905071519 | 17 | 244 | 0.0 | 1.6 | 0.00 | 0.00 | 0.00 | 89 | 1007.6 |
| 20260905071019 | 17 | 323 | 0.0 | 1.6 | 0.00 | 0.00 | 0.00 | 89 | 1007.6 |
| 20260905070519 | 17 | 341 | 0.0 | 1.6 | 0.00 | 0.00 | 0.00 | 89 | 1007.7 |
| 20260905070117 | 17 | 341 | 0.0 | 1.6 | 0.00 | 0.00 | 0.00 | 89 | 1007.7 |
| 20260905065516 | 16 | 336 | 0.0 | 1.6 | 0.00 | 0.00 | 0.00 | 89 | 1007.8 |
| 20260905065018 | 16 | 336 | 0.0 | 0.0 | 0.00 | 0.00 | 0.00 | 89 | 1007.9 |
| 20260905064534 | 16 | 336 | 0.0 | 0.0 | 0.00 | 0.00 | 0.00 | 88 | 1007.9 |
| 20260905064014 | 16 | 336 | 0.0 | 0.0 | 0.00 | 0.00 | 0.00 | 88 | 1007.9 |
| 20260905063516 | 16 | 336 | 0.0 | 0.0 | 0.00 | 0.00 | 0.00 | 88 | 1007.9 |
| 20260905063014 | 17 | 336 | 0.0 | 3.2 | 0.00 | 0.00 | 0.00 | 88 | 1007.9 |
| 20260905062513 | 17 | 336 | 0.0 | 3.2 | 0.00 | 0.00 | 0.00 | 88 | 1007.9 |
| 20260905062012 | 17 | 336 | 0.0 | 3.2 | 0.00 | 0.00 | 0.00 | 88 | 1007.9 |
| 20260905061512 | 17 | 336 | 0.0 | 0.0 | 0.00 | 0.00 | 0.00 | 88 | 1007.9 |
| 20260905061012 | 17 | 336 | 0.0 | 0.0 | 0.00 | 0.00 | 0.00 | 87 | 1007.9 |
| 20260905060511 | 17 | 336 | 0.0 | 0.0 | 0.00 | 0.00 | 0.00 | 88 | 1007.9 |
| 20260905060011 | 17 | 336 | 0.0 | 3.2 | 0.00 | 0.00 | 0.00 | 88 | 1008.0 |
| 20260905055510 | 17 | 338 | 0.0 | 3.2 | 0.00 | 0.00 | 0.00 | 88 | 1008.1 |
| 20260905055012 | 17 | 9 | 0.0 | 1.6 | 0.00 | 0.00 | 0.00 | 87 | 1008.2 |
| 20260905054511 | 17 | 355 | 0.0 | 3.2 | 0.00 | 0.00 | 0.00 | 87 | 1008.1 |
| 20260905054013 | 17 | 355 | 0.0 | 3.2 | 0.00 | 0.00 | 0.00 | 86 | 1008.1 |
| 20260905053508 | 17 | 355 | 0.0 | 3.2 | 0.00 | 0.00 | 0.00 | 86 | 1008.1 |
| 20260905053007 | 17 | 355 | 0.0 | 3.2 | 0.00 | 0.00 | 0.00 | 86 | 1008.2 |
| 20260905052506 | 17 | 355 | 0.0 | 1.6 | 0.00 | 0.00 | 0.00 | 86 | 1008.3 |
| 20260905052006 | 17 | 355 | 0.0 | 3.2 | 0.00 | 0.00 | 0.00 | 86 | 1008.3 |
| 20260905051515 | 17 | 355 | 0.0 | 3.2 | 0.00 | 0.00 | 0.00 | 86 | 1008.2 |
| 20260905051005 | 17 | 355 | 0.0 | 3.2 | 0.00 | 0.00 | 0.00 | 85 | 1008.2 |
| 20260905050505 | 17 | 355 | 1.6 | 3.2 | 0.00 | 0.00 | 0.00 | 85 | 1008.3 |
| 20260905050006 | 17 | 355 | 0.0 | 3.2 | 0.00 | 0.00 | 0.00 | 84 | 1008.3 |
| 20260905045503 | 17 | 355 | 0.0 | 3.2 | 0.00 | 0.00 | 0.00 | 84 | 1008.4 |
| 20260905045002 | 17 | 355 | 0.0 | 0.0 | 0.00 | 0.00 | 0.00 | 84 | 1008.3 |
| 20260905044502 | 17 | 355 | 0.0 | 0.0 | 0.00 | 0.00 | 0.00 | 84 | 1008.3 |
| 20260905044000 | 18 | 355 | 0.0 | 0.0 | 0.00 | 0.00 | 0.00 | 84 | 1008.2 |
| 20260905043602 | 18 | 355 | 0.0 | 0.0 | 0.00 | 0.00 | 0.00 | 84 | 1008.2 |
| 20260905043106 | 18 | 355 | 0.0 | 0.0 | 0.00 | 0.00 | 0.00 | 84 | 1008.1 |
| 20260905042603 | 18 | 355 | 0.0 | 0.0 | 0.00 | 0.00 | 0.00 | 84 | 1008.1 |
| 20260905042058 | 18 | 355 | 0.0 | 0.0 | 0.00 | 0.00 | 0.00 | 84 | 1008.1 |
| 20260905041601 | 18 | 355 | 0.0 | 1.6 | 0.00 | 0.00 | 0.00 | 83 | 1008.3 |
| 20260905041058 | 18 | 355 | 0.0 | 1.6 | 0.00 | 0.00 | 0.00 | 83 | 1008.2 |
| 20260905040556 | 18 | 355 | 0.0 | 1.6 | 0.00 | 0.00 | 0.00 | 83 | 1008.3 |
| 20260905040056 | 18 | 355 | 0.0 | 0.0 | 0.00 | 0.00 | 0.00 | 82 | 1008.2 |
| 20260905035555 | 18 | 355 | 0.0 | 1.6 | 0.00 | 0.00 | 0.00 | 82 | 1008.2 |
| 20260905035056 | 18 | 355 | 0.0 | 1.6 | 0.00 | 0.00 | 0.00 | 82 | 1008.1 |
| 20260905034603 | 18 | 355 | 0.0 | 1.6 | 0.00 | 0.00 | 0.00 | 81 | 1008.1 |
| 20260905034055 | 18 | 35 | 0.0 | 0.0 | 0.00 | 0.00 | 0.00 | 81 | 1008.1 |
| 20260905033554 | 19 | 35 | 0.0 | 0.0 | 0.00 | 0.00 | 0.00 | 80 | 1008.1 |
| 20260905033054 | 19 | 35 | 0.0 | 0.0 | 0.00 | 0.00 | 0.00 | 80 | 1008.1 |
| 20260905032554 | 19 | 35 | 0.0 | 1.6 | 0.00 | 0.00 | 0.00 | 79 | 1008.1 |
| 20260905032053 | 19 | 35 | 0.0 | 1.6 | 0.00 | 0.00 | 0.00 | 79 | 1008.1 |
| 20260905031556 | 19 | 35 | 0.0 | 1.6 | 0.00 | 0.00 | 0.00 | 79 | 1008.1 |
| 20260905031053 | 20 | 35 | 0.0 | 0.0 | 0.00 | 0.00 | 0.00 | 80 | 1008.2 |
| 20260905030553 | 20 | 35 | 0.0 | 1.6 | 0.00 | 0.00 | 0.00 | 79 | 1008.2 |
| 20260905030110 | 20 | 35 | 0.0 | 1.6 | 0.00 | 0.00 | 0.00 | 79 | 1008.3 |
| 20260905025554 | 20 | 35 | 0.0 | 1.6 | 0.00 | 0.00 | 0.00 | 79 | 1008.2 |
| 20260905025056 | 20 | 35 | 0.0 | 1.6 | 0.00 | 0.00 | 0.00 | 80 | 1008.3 |
| 20260905024553 | 20 | 35 | 0.0 | 1.6 | 0.00 | 0.00 | 0.00 | 80 | 1008.3 |
| 20260905024052 | 20 | 35 | 0.0 | 1.6 | 0.00 | 0.00 | 0.00 | 80 | 1008.3 |
| 20260905023555 | 20 | 35 | 0.0 | 1.6 | 0.00 | 0.00 | 0.00 | 79 | 1008.3 |
| 20260905023052 | 20 | 35 | 0.0 | 1.6 | 0.00 | 0.00 | 0.00 | 79 | 1008.4 |
| 20260905022551 | 20 | 35 | 0.0 | 1.6 | 0.00 | 0.00 | 0.00 | 78 | 1008.3 |
| 20260905022052 | 20 | 13 | 0.0 | 1.6 | 0.00 | 0.00 | 0.00 | 78 | 1008.4 |
| 20260905021552 | 20 | 13 | 0.0 | 1.6 | 0.00 | 0.00 | 0.00 | 78 | 1008.3 |
| 20260905021052 | 20 | 13 | 0.0 | 1.6 | 0.00 | 0.00 | 0.00 | 77 | 1008.4 |
| 20260905020551 | 20 | 13 | 0.0 | 1.6 | 0.00 | 0.00 | 0.00 | 78 | 1008.5 |
| 20260905020052 | 20 | 13 | 0.0 | 1.6 | 0.00 | 0.00 | 0.00 | 78 | 1008.6 |
| 20260905015551 | 20 | 61 | 0.0 | 3.2 | 0.00 | 0.00 | 0.00 | 79 | 1008.5 |
| 20260905015053 | 20 | 61 | 0.0 | 3.2 | 0.00 | 0.00 | 0.00 | 79 | 1008.7 |
| 20260905014556 | 20 | 81 | 0.0 | 3.2 | 0.00 | 0.00 | 0.00 | 79 | 1008.6 |
| 20260905014050 | 20 | 55 | 0.0 | 1.6 | 0.00 | 0.00 | 0.00 | 79 | 1008.7 |
| 20260905013553 | 20 | 55 | 0.0 | 1.6 | 0.00 | 0.00 | 0.00 | 77 | 1008.7 |
| 20260905013053 | 20 | 55 | 0.0 | 1.6 | 0.00 | 0.00 | 0.00 | 76 | 1008.7 |
| 20260905012552 | 20 | 55 | 0.0 | 3.2 | 0.00 | 0.00 | 0.00 | 76 | 1008.8 |
| 20260905012054 | 20 | 55 | 0.0 | 3.2 | 0.00 | 0.00 | 0.00 | 76 | 1008.7 |
| 20260905011551 | 20 | 265 | 0.0 | 0.0 | 0.00 | 0.00 | 0.00 | 76 | 1008.7 |
| 20260905011050 | 20 | 265 | 0.0 | 0.0 | 0.00 | 0.00 | 0.00 | 75 | 1008.6 |
| 20260905010554 | 20 | 265 | 0.0 | 1.6 | 0.00 | 0.00 | 0.00 | 75 | 1008.5 |
| 20260905010049 | 20 | 265 | 0.0 | 1.6 | 0.00 | 0.00 | 0.00 | 75 | 1008.6 |
| 20260905005550 | 20 | 265 | 0.0 | 0.0 | 0.00 | 0.00 | 0.00 | 75 | 1008.7 |
| 20260905005051 | 20 | 265 | 0.0 | 0.0 | 0.00 | 0.00 | 0.00 | 73 | 1008.6 |
| 20260905004549 | 20 | 265 | 0.0 | 1.6 | 0.00 | 0.00 | 0.00 | 74 | 1008.5 |
| 20260905004048 | 21 | 265 | 0.0 | 1.6 | 0.00 | 0.00 | 0.00 | 74 | 1008.4 |
| 20260905003549 | 21 | 265 | 0.0 | 1.6 | 0.00 | 0.00 | 0.00 | 74 | 1008.5 |
| 20260905003049 | 21 | 265 | 0.0 | 1.6 | 0.00 | 0.00 | 0.00 | 73 | 1008.5 |
| 20260905002547 | 21 | 284 | 0.0 | 1.6 | 0.00 | 0.00 | 0.00 | 73 | 1008.6 |
| 20260905002050 | 21 | 284 | 0.0 | 3.2 | 0.00 | 0.00 | 0.00 | 71 | 1008.4 |
| 20260905001548 | 21 | 285 | 0.0 | 3.2 | 0.00 | 0.00 | 0.00 | 71 | 1008.4 |
| 20260905001047 | 21 | 286 | 0.0 | 3.2 | 0.00 | 0.00 | 0.00 | 71 | 1008.4 |
| 20260905000548 | 21 | 284 | 0.0 | 1.6 | 0.00 | 0.00 | 0.00 | 71 | 1008.4 |
| 20260905000048 | 21 | 255 | 0.0 | 1.6 | 0.00 | 0.00 | 0.00 | 72 | 1008.4 |
| 20260904235548 | 21 | 123 | 0.0 | 1.6 | 0.00 | 0.00 | 0.00 | 73 | 1008.5 |
| 20260904235047 | 21 | 351 | 0.0 | 1.6 | 0.00 | 0.00 | 0.00 | 73 | 1008.4 |
| 20260904234548 | 21 | 355 | 0.0 | 1.6 | 0.00 | 0.00 | 0.00 | 72 | 1008.4 |
| 20260904234049 | 21 | 298 | 0.0 | 1.6 | 0.00 | 0.00 | 0.00 | 71 | 1008.2 |
| 20260904233546 | 21 | 298 | 0.0 | 1.6 | 0.00 | 0.00 | 0.00 | 72 | 1008.1 |
| 20260904233048 | 22 | 298 | 0.0 | 1.6 | 0.00 | 0.00 | 0.00 | 71 | 1008.0 |
| 20260904232546 | 22 | 346 | 0.0 | 3.2 | 0.00 | 0.00 | 0.00 | 71 | 1008.0 |
| 20260904232045 | 22 | 346 | 0.0 | 3.2 | 0.00 | 0.00 | 0.00 | 70 | 1008.1 |
| 20260904231546 | 22 | 42 | 0.0 | 1.6 | 0.00 | 0.00 | 0.00 | 73 | 1008.0 |
| 20260904231046 | 22 | 80 | 0.0 | 1.6 | 0.00 | 0.00 | 0.00 | 72 | 1007.9 |
| 20260904230546 | 22 | 56 | 0.0 | 3.2 | 0.00 | 0.00 | 0.00 | 71 | 1007.9 |
| 20260904230046 | 22 | 349 | 0.0 | 3.2 | 0.00 | 0.00 | 0.00 | 72 | 1007.9 |
| 20260904225547 | 22 | 136 | 0.0 | 0.0 | 0.00 | 0.00 | 0.00 | 71 | 1007.9 |
| 20260904225044 | 22 | 136 | 0.0 | 1.6 | 0.00 | 0.00 | 0.00 | 70 | 1007.9 |
| 20260904224545 | 23 | 136 | 0.0 | 1.6 | 0.00 | 0.00 | 0.00 | 71 | 1007.8 |
| 20260904224044 | 23 | 136 | 0.0 | 1.6 | 0.00 | 0.00 | 0.00 | 71 | 1007.7 |
| 20260904223544 | 23 | 146 | 0.0 | 3.2 | 0.00 | 0.00 | 0.00 | 70 | 1007.7 |
| 20260904223050 | 23 | 140 | 0.0 | 1.6 | 0.00 | 0.00 | 0.00 | 69 | 1007.7 |
| 20260904222543 | 23 | 351 | 0.0 | 1.6 | 0.00 | 0.00 | 0.00 | 69 | 1007.6 |
| 20260904222043 | 23 | 351 | 0.0 | 1.6 | 0.00 | 0.00 | 0.00 | 68 | 1007.7 |
| 20260904221550 | 23 | 351 | 0.0 | 8.0 | 0.00 | 0.00 | 0.00 | 67 | 1007.7 |
| 20260904221045 | 23 | 302 | 3.2 | 8.0 | 0.00 | 0.00 | 0.00 | 65 | 1007.6 |
| 20260904220543 | 23 | 60 | 0.0 | 3.2 | 0.00 | 0.00 | 0.00 | 67 | 1007.6 |
| 20260904220059 | 24 | 132 | 0.0 | 6.4 | 0.00 | 0.00 | 0.00 | 66 | 1007.6 |
| 20260904215542 | 24 | 160 | 0.0 | 6.4 | 0.00 | 0.00 | 0.00 | 65 | 1007.6 |
| 20260904215046 | 24 | 238 | 0.0 | 3.2 | 0.00 | 0.00 | 0.00 | 68 | 1007.6 |
| 20260904214543 | 25 | 224 | 0.0 | 3.2 | 0.00 | 0.00 | 0.00 | 68 | 1007.5 |
| 20260904214042 | 25 | 179 | 0.0 | 6.4 | 0.00 | 0.00 | 0.00 | 67 | 1007.5 |
| 20260904213542 | 25 | 57 | 0.0 | 6.4 | 0.00 | 0.00 | 0.00 | 67 | 1007.4 |
| 20260904213042 | 24 | 151 | 0.0 | 3.2 | 0.00 | 0.00 | 0.00 | 68 | 1007.5 |
| 20260904212542 | 24 | 296 | 0.0 | 3.2 | 0.00 | 0.00 | 0.00 | 68 | 1007.5 |
| 20260904212043 | 24 | 279 | 0.0 | 6.4 | 0.00 | 0.00 | 0.00 | 69 | 1007.4 |
| 20260904211550 | 24 | 137 | 0.0 | 8.0 | 0.00 | 0.00 | 0.00 | 69 | 1007.5 |
| 20260904211041 | 24 | 280 | 0.0 | 11.3 | 0.00 | 0.00 | 0.00 | 66 | 1007.6 |
| 20260904210541 | 24 | 290 | 1.6 | 3.2 | 0.00 | 0.00 | 0.00 | 68 | 1007.6 |
| 20260904210046 | 24 | 74 | 0.0 | 6.4 | 0.00 | 0.00 | 0.00 | 68 | 1007.5 |
| 20260904205541 | 24 | 80 | 3.2 | 6.4 | 0.00 | 0.00 | 0.00 | 68 | 1007.5 |
| 20260904205042 | 24 | 168 | 0.0 | 1.6 | 0.00 | 0.00 | 0.00 | 66 | 1007.5 |
| 20260904204539 | 24 | 126 | 0.0 | 1.6 | 0.00 | 0.00 | 0.00 | 64 | 1007.4 |